{"data":{"norad_id":66321,"intl_designator":"2025-253C","name":"STARLINK-34615","alt_names":[],"object_type":"PAYLOAD","status":"ACTIVE","operator":null,"country":"US","launch_date":"2025-11-06","launch_site_code":"AFETR","launch_vehicle":null,"mission":null,"orbit_class":"UNKNOWN","rcs_meters":null,"size_class":null,"mass_kg":null,"dimensions":null,"purposes":["comms"],"wikipedia_slug":null,"has_3d_model":false,"image_url":null,"decayed_at":null,"tle_current":{"epoch":"2026-05-25T01:14:42.458784Z","epoch_age_seconds":67243,"freshness":"FRESH","line1":"1 66321U 25253C   26145.05188031  .00021545  00000+0  78970-3 0  9999","line2":"2 66321  42.9987 141.1819 0001281 229.4489 130.6251 15.27599003 31928","mean_motion":15.27599003,"eccentricity":0.0001281,"inclination_deg":42.9987,"raan_deg":141.1819,"arg_perigee_deg":229.4489,"mean_anomaly_deg":130.6251,"bstar":0.0007897,"rev_number":3192,"period_min":94.26557605576,"perigee_km":482.11328416138,"apogee_km":483.87110546109,"semimajor_km":6861.1291948112,"source":"CELESTRAK","updated_at":"2026-05-25T13:38:21.166815Z"}}}